| time (UTC) | temp C | wind direction | speed KPH | gust KPH | rain 1hr cm | rain 24hr cm | rain mn cm | humidity % | barometer mb |
| 20260505223005 | -17 | 0.0 | 0.0 | 0.00 | 0.00 | 0.00 | 1014.3 | ||
| 20260505221604 | -17 | 0.0 | 0.0 | 0.00 | 0.00 | 0.00 | 1014.3 | ||
| 20260505220100 | -17 | 0.0 | 0.0 | 0.00 | 0.00 | 0.00 | 1014.4 | ||
| 20260505214557 | -17 | 0.0 | 0.0 | 0.00 | 0.00 | 0.00 | 1014.5 | ||
| 20260505213046 | -17 | 0.0 | 0.0 | 0.00 | 0.00 | 0.00 | 1014.3 | ||
| 20260505211542 | -17 | 0.0 | 0.0 | 0.00 | 0.00 | 0.00 | 1014.1 | ||
| 20260505210037 | -17 | 0.0 | 0.0 | 0.00 | 0.00 | 0.00 | 1014.0 | ||
| 20260505204534 | -17 | 0.0 | 0.0 | 0.00 | 0.00 | 0.00 | 1014.1 | ||
| 20260505203050 | 9 | 103 | 3.2 | 14.5 | 0.00 | 0.00 | 0.00 | 77 | 1014.0 |
| 20260505201536 | 9 | 103 | 4.8 | 14.5 | 0.00 | 0.00 | 0.00 | 77 | 1013.9 |
| 20260505200030 | 10 | 103 | 0.0 | 8.0 | 0.00 | 0.00 | 0.00 | 78 | 1013.7 |
| 20260505194529 | 10 | 103 | 1.6 | 6.4 | 0.00 | 0.00 | 0.00 | 78 | 1013.6 |
| 20260505193032 | 10 | 103 | 1.6 | 12.9 | 0.00 | 0.00 | 0.00 | 77 | 1013.5 |
| 20260505191529 | 10 | 103 | 1.6 | 6.4 | 0.00 | 0.00 | 0.00 | 76 | 1013.3 |
| 20260505190033 | 10 | 103 | 3.2 | 11.3 | 0.00 | 0.00 | 0.00 | 75 | 1013.1 |
| 20260505184534 | 11 | 103 | 3.2 | 16.1 | 0.00 | 0.00 | 0.00 | 75 | 1013.0 |
| 20260505183027 | 11 | 103 | 4.8 | 16.1 | 0.00 | 0.00 | 0.00 | 74 | 1012.9 |
| 20260505181533 | 11 | 103 | 8.0 | 22.5 | 0.00 | 0.00 | 0.00 | 74 | 1012.8 |
| 20260505180027 | 12 | 103 | 8.0 | 25.7 | 0.00 | 0.00 | 0.00 | 72 | 1012.6 |
| 20260505174532 | 13 | 103 | 8.0 | 19.3 | 0.00 | 0.00 | 0.00 | 65 | 1012.4 |
| 20260505173025 | 13 | 103 | 9.7 | 14.5 | 0.00 | 0.00 | 0.00 | 64 | 1012.5 |
| 20260505171525 | 13 | 103 | 4.8 | 17.7 | 0.00 | 0.00 | 0.00 | 65 | 1012.6 |
| 20260505170024 | 14 | 103 | 8.0 | 16.1 | 0.00 | 0.00 | 0.00 | 64 | 1012.5 |
| 20260505164524 | 14 | 103 | 3.2 | 11.3 | 0.00 | 0.00 | 0.00 | 64 | 1012.5 |
| 20260505163029 | 14 | 103 | 4.8 | 14.5 | 0.00 | 0.00 | 0.00 | 63 | 1012.4 |
| 20260505161523 | 15 | 103 | 1.6 | 9.7 | 0.00 | 0.00 | 0.00 | 63 | 1012.5 |
| 20260505153022 | 15 | 103 | 3.2 | 12.9 | 0.00 | 0.00 | 0.00 | 61 | 1012.7 |
| 20260505151521 | 15 | 103 | 4.8 | 11.3 | 0.00 | 0.00 | 0.00 | 64 | 1012.7 |
| 20260505124515 | 15 | 103 | 4.8 | 12.9 | 0.00 | 0.00 | 0.00 | 64 | 1012.9 |
| 20260505123014 | 15 | 103 | 3.2 | 11.3 | 0.00 | 0.00 | 0.00 | 66 | 1012.8 |
| 20260505121516 | 15 | 103 | 1.6 | 12.9 | 0.00 | 0.00 | 0.00 | 65 | 1012.7 |
| 20260505120014 | 16 | 103 | 4.8 | 16.1 | 0.00 | 0.00 | 0.00 | 65 | 1012.8 |
| 20260505114516 | 15 | 103 | 1.6 | 9.7 | 0.00 | 0.00 | 0.00 | 66 | 1012.8 |
| 20260505113017 | 16 | 103 | 1.6 | 16.1 | 0.00 | 0.00 | 0.00 | 67 | 1012.8 |
| 20260505111511 | 15 | 103 | 4.8 | 12.9 | 0.00 | 0.00 | 0.00 | 63 | 1012.9 |
| 20260505101504 | 15 | 103 | 4.8 | 14.5 | 0.00 | 0.00 | 0.00 | 63 | 1013.3 |
| 20260505100002 | 15 | 103 | 3.2 | 12.9 | 0.00 | 0.00 | 0.00 | 62 | 1013.3 |
| 20260505094558 | 15 | 103 | 1.6 | 11.3 | 0.00 | 0.00 | 0.00 | 64 | 1013.4 |
| 20260505093055 | 15 | 103 | 3.2 | 14.5 | 0.00 | 0.00 | 0.00 | 66 | 1013.5 |
| 20260505091551 | 14 | 103 | 3.2 | 14.5 | 0.00 | 0.00 | 0.00 | 67 | 1013.4 |
| 20260505090059 | 13 | 103 | 0.0 | 14.5 | 0.00 | 0.00 | 0.00 | 70 | 1013.6 |
| 20260505084549 | 13 | 103 | 1.6 | 12.9 | 0.00 | 0.00 | 0.00 | 73 | 1013.7 |
| 20260505083040 | 12 | 324 | 0.0 | 8.0 | 0.00 | 0.00 | 0.00 | 75 | 1013.7 |
| 20260505081542 | 11 | 103 | 1.6 | 8.0 | 0.00 | 0.00 | 0.00 | 76 | 1013.7 |
| 20260505080034 | 11 | 103 | 0.0 | 8.0 | 0.00 | 0.00 | 0.00 | 76 | 1013.7 |
| 20260505074533 | 11 | 103 | 0.0 | 8.0 | 0.00 | 0.00 | 0.00 | 78 | 1013.6 |
| 20260505073037 | 11 | 103 | 1.6 | 9.7 | 0.00 | 0.00 | 0.00 | 84 | 1013.6 |
| 20260505071526 | 10 | 103 | 0.0 | 8.0 | 0.00 | 0.00 | 0.00 | 90 | 1013.6 |
| 20260505070022 | 8 | 103 | 0.0 | 6.4 | 0.00 | 0.00 | 0.00 | 91 | 1013.9 |
| 20260505064522 | 8 | 103 | 0.0 | 0.0 | 0.00 | 0.00 | 0.00 | 91 | 1014.0 |
| 20260505063019 | 7 | 103 | 0.0 | 4.8 | 0.00 | 0.00 | 0.00 | 91 | 1013.9 |
| 20260505061519 | 7 | 103 | 0.0 | 4.8 | 0.00 | 0.00 | 0.00 | 92 | 1014.0 |
| 20260505060029 | 7 | 103 | 1.6 | 6.4 | 0.00 | 0.00 | 0.00 | 92 | 1014.0 |
| 20260505054531 | 7 | 103 | 0.0 | 1.6 | 0.00 | 0.00 | 0.00 | 92 | 1014.0 |
| 20260505053014 | 6 | 103 | 0.0 | 1.6 | 0.00 | 0.00 | 0.00 | 92 | 1014.1 |
| 20260505051511 | 6 | 103 | 0.0 | 0.0 | 0.00 | 0.00 | 0.00 | 92 | 1013.9 |
| 20260505041503 | 6 | 103 | 0.0 | 0.0 | 0.00 | 0.00 | 0.00 | 91 | 1013.7 |
| 20260505040002 | 6 | 103 | 0.0 | 0.0 | 0.00 | 0.00 | 0.00 | 91 | 1013.6 |
| 20260505034501 | 6 | 103 | 0.0 | 0.0 | 0.00 | 0.00 | 0.00 | 91 | 1013.6 |
| 20260505033116 | 6 | 103 | 0.0 | 0.0 | 0.00 | 0.00 | 0.00 | 90 | 1013.7 |
| 20260505031557 | 7 | 103 | 0.0 | 0.0 | 0.00 | 0.00 | 0.00 | 90 | 1013.6 |
| 20260505030056 | 7 | 103 | 0.0 | 0.0 | 0.00 | 0.00 | 0.00 | 90 | 1013.6 |
| 20260505024558 | 7 | 103 | 0.0 | 0.0 | 0.00 | 0.00 | 0.00 | 90 | 1013.6 |
| 20260505023101 | 8 | 103 | 0.0 | 0.0 | 0.00 | 0.00 | 0.00 | 90 | 1013.7 |
| 20260505021550 | 8 | 103 | 0.0 | 0.0 | 0.00 | 0.00 | 0.00 | 90 | 1013.7 |
| 20260505020051 | 8 | 103 | 0.0 | 0.0 | 0.00 | 0.00 | 0.00 | 89 | 1013.9 |
| 20260505014544 | 8 | 103 | 0.0 | 0.0 | 0.00 | 0.00 | 0.00 | 90 | 1014.1 |
| 20260505013042 | 8 | 103 | 0.0 | 0.0 | 0.00 | 0.00 | 0.00 | 90 | 1014.2 |
| 20260505011541 | 9 | 103 | 0.0 | 0.0 | 0.00 | 0.00 | 0.00 | 90 | 1014.2 |
| 20260505010042 | 9 | 103 | 0.0 | 0.0 | 0.00 | 0.00 | 0.00 | 90 | 1014.4 |
| 20260505004546 | 9 | 103 | 0.0 | 0.0 | 0.00 | 0.00 | 0.00 | 90 | 1014.5 |
| 20260505003039 | 9 | 103 | 0.0 | 0.0 | 0.00 | 0.00 | 0.00 | 90 | 1014.6 |
| 20260505001536 | 9 | 125 | 0.0 | 0.0 | 0.00 | 0.00 | 0.00 | 90 | 1014.7 |
| 20260505000036 | 9 | 125 | 0.0 | 0.0 | 0.00 | 0.00 | 0.00 | 89 | 1014.7 |
| 20260504234548 | 9 | 125 | 0.0 | 0.0 | 0.00 | 0.00 | 0.00 | 89 | 1014.8 |
| 20260504233035 | 9 | 125 | 0.0 | 0.0 | 0.00 | 0.00 | 0.00 | 89 | 1014.9 |
| 20260504231542 | 9 | 125 | 0.0 | 0.0 | 0.00 | 0.00 | 0.00 | 89 | 1014.9 |
| 20260504230031 | 9 | 125 | 0.0 | 0.0 | 0.00 | 0.00 | 0.00 | 89 | 1014.8 |
| 20260504224530 | 9 | 124 | 0.0 | 0.0 | 0.00 | 0.00 | 0.00 | 89 | 1014.8 |